Time,TemperatureF,DewpointF,PressureIn,WindDirection,WindDirectionDegrees,WindSpeedMPH,WindSpeedGustMPH,Humidity,HourlyPrecipIn,Conditions,Clouds,dailyrainin,SolarRadiationWatts/m^2,SoftwareType,DateUTC
2013-09-12 00:01:00,58.0,40.0,-100.00,ENE,72,13.0,19.0,51,0.00,,,0.00,0.000000,,2013-09-12 06:01:00,
2013-09-12 00:42:00,57.0,40.0,-100.00,ENE,71,9.0,19.0,53,0.00,,,0.00,0.000000,,2013-09-12 06:42:00,
2013-09-12 00:52:00,57.0,40.0,-100.00,ENE,71,9.0,19.0,53,0.00,,,0.00,0.000000,,2013-09-12 06:52:00,
2013-09-12 01:02:00,57.0,40.0,-100.00,ENE,71,9.0,19.0,53,0.00,,,0.00,0.000000,,2013-09-12 07:02:00,
2013-09-12 01:43:00,56.0,41.0,-100.00,ENE,65,6.0,11.0,56,0.00,,,-99.99,0.000000,,2013-09-12 07:43:00,
2013-09-12 01:52:00,56.0,41.0,-100.00,ENE,65,6.0,11.0,56,0.00,,,-99.99,0.000000,,2013-09-12 07:52:00,
2013-09-12 02:02:00,56.0,41.0,-100.00,ENE,65,6.0,11.0,56,0.00,,,-99.99,0.000000,,2013-09-12 08:02:00,
2013-09-12 02:42:00,56.0,40.0,-100.00,NE,43,4.0,8.0,54,0.00,,,-99.99,0.000000,,2013-09-12 08:42:00,
2013-09-12 02:52:00,56.0,40.0,-100.00,NE,43,4.0,8.0,54,0.00,,,-99.99,0.000000,,2013-09-12 08:52:00,
2013-09-12 03:02:00,56.0,40.0,-100.00,NE,43,4.0,8.0,54,0.00,,,-99.99,0.000000,,2013-09-12 09:02:00,
2013-09-12 03:43:00,58.0,39.0,-100.00,East,101,5.0,10.0,50,0.00,,,0.00,0.000000,,2013-09-12 09:43:00,
2013-09-12 03:53:00,58.0,39.0,-100.00,East,101,5.0,10.0,50,0.00,,,0.00,0.000000,,2013-09-12 09:53:00,
2013-09-12 04:03:00,58.0,39.0,-100.00,East,101,5.0,10.0,50,0.00,,,0.00,0.000000,,2013-09-12 10:03:00,
2013-09-12 04:43:00,57.0,38.0,-100.00,ESE,107,8.0,11.0,49,0.00,,,0.00,0.000000,,2013-09-12 10:43:00,
2013-09-12 04:53:00,57.0,38.0,-100.00,ESE,107,8.0,11.0,49,0.00,,,0.00,0.000000,,2013-09-12 10:53:00,
2013-09-12 05:03:00,57.0,38.0,-100.00,ESE,107,8.0,11.0,49,0.00,,,0.00,0.000000,,2013-09-12 11:03:00,
2013-09-12 05:42:00,55.0,38.0,-100.00,ESE,120,7.0,9.0,53,0.00,,,0.00,0.000000,,2013-09-12 11:42:00,
2013-09-12 05:52:00,55.0,38.0,-100.00,ESE,120,7.0,9.0,53,0.00,,,0.00,0.000000,,2013-09-12 11:52:00,
2013-09-12 06:01:00,55.0,38.0,-100.00,ESE,120,7.0,9.0,53,0.00,,,0.00,0.000000,,2013-09-12 12:01:00,
2013-09-12 06:42:00,55.0,40.0,-100.00,SSE,159,5.0,11.0,56,0.00,,,-99.99,0.000000,,2013-09-12 12:42:00,
2013-09-12 06:52:00,55.0,40.0,-100.00,SSE,159,5.0,11.0,56,0.00,,,-99.99,0.000000,,2013-09-12 12:52:00,
2013-09-12 07:02:00,55.0,40.0,-100.00,SSE,159,5.0,11.0,56,0.00,,,-99.99,0.000000,,2013-09-12 13:02:00,
2013-09-12 07:42:00,54.0,39.0,-100.00,SE,140,5.0,7.0,57,0.00,,,0.00,0.000000,,2013-09-12 13:42:00,
2013-09-12 07:52:00,54.0,39.0,-100.00,SE,140,5.0,7.0,57,0.00,,,0.00,0.000000,,2013-09-12 13:52:00,
2013-09-12 08:02:00,54.0,39.0,-100.00,SE,140,5.0,7.0,57,0.00,,,0.00,0.000000,,2013-09-12 14:02:00,
2013-09-12 08:42:00,56.0,40.0,-100.00,SSE,155,5.0,7.0,55,0.00,,,0.00,49.000000,,2013-09-12 14:42:00,
2013-09-12 08:52:00,56.0,40.0,-100.00,SSE,155,5.0,7.0,55,0.00,,,0.00,49.000000,,2013-09-12 14:52:00,
2013-09-12 09:02:00,56.0,40.0,-100.00,SSE,155,5.0,7.0,55,0.00,,,0.00,49.000000,,2013-09-12 15:02:00,
2013-09-12 09:43:00,59.0,42.0,-100.00,ESE,121,5.0,7.0,53,0.00,,,0.00,258.000000,,2013-09-12 15:43:00,
2013-09-12 09:54:00,59.0,42.0,-100.00,ESE,121,5.0,7.0,53,0.00,,,0.00,258.000000,,2013-09-12 15:54:00,
2013-09-12 10:03:00,59.0,42.0,-100.00,ESE,121,5.0,7.0,53,0.00,,,0.00,258.000000,,2013-09-12 16:03:00,
2013-09-12 10:43:00,62.0,42.0,-100.00,SE,141,5.0,7.0,47,0.00,,,0.00,467.000000,,2013-09-12 16:43:00,
2013-09-12 10:53:00,62.0,42.0,-100.00,SE,141,5.0,7.0,47,0.00,,,0.00,467.000000,,2013-09-12 16:53:00,
2013-09-12 11:03:00,62.0,42.0,-100.00,SE,141,5.0,7.0,47,0.00,,,0.00,467.000000,,2013-09-12 17:03:00,
2013-09-12 11:43:00,64.0,41.0,-100.00,ESE,122,7.0,10.0,43,0.00,,,0.00,599.000000,,2013-09-12 17:43:00,
2013-09-12 11:53:00,64.0,41.0,-100.00,ESE,122,7.0,10.0,43,0.00,,,0.00,599.000000,,2013-09-12 17:53:00,
2013-09-12 12:02:00,64.0,41.0,-100.00,ESE,122,7.0,10.0,43,0.00,,,0.00,599.000000,,2013-09-12 18:02:00,
2013-09-12 12:42:00,65.0,41.0,-100.00,SE,130,11.0,15.0,41,0.00,,,0.00,793.000000,,2013-09-12 18:42:00,
2013-09-12 12:52:00,65.0,41.0,-100.00,SE,130,11.0,15.0,41,0.00,,,0.00,793.000000,,2013-09-12 18:52:00,
2013-09-12 13:02:00,65.0,41.0,-100.00,SE,130,11.0,15.0,41,0.00,,,0.00,793.000000,,2013-09-12 19:02:00,
2013-09-12 13:42:00,67.0,41.0,-100.00,SE,142,12.0,21.0,38,0.00,,,0.00,928.000000,,2013-09-12 19:42:00,
2013-09-12 13:52:00,67.0,41.0,-100.00,SE,142,12.0,21.0,38,0.00,,,0.00,928.000000,,2013-09-12 19:52:00,
2013-09-12 14:02:00,67.0,41.0,-100.00,SE,142,12.0,21.0,38,0.00,,,0.00,928.000000,,2013-09-12 20:02:00,
2013-09-12 14:42:00,70.0,41.0,-100.00,SE,137,7.0,17.0,35,0.00,,,0.00,936.000000,,2013-09-12 20:42:00,
2013-09-12 14:52:00,70.0,41.0,-100.00,SE,137,7.0,17.0,35,0.00,,,0.00,936.000000,,2013-09-12 20:52:00,
2013-09-12 15:02:00,70.0,41.0,-100.00,SE,137,7.0,17.0,35,0.00,,,0.00,936.000000,,2013-09-12 21:02:00,
2013-09-12 15:43:00,72.0,41.0,-100.00,SSE,165,8.0,16.0,33,0.00,,,-99.99,857.000000,,2013-09-12 21:43:00,
2013-09-12 15:54:00,72.0,41.0,-100.00,SSE,165,8.0,16.0,33,0.00,,,-99.99,857.000000,,2013-09-12 21:54:00,
2013-09-12 16:04:00,72.0,41.0,-100.00,SSE,165,8.0,16.0,33,0.00,,,-99.99,857.000000,,2013-09-12 22:04:00,
2013-09-12 16:43:00,72.0,42.0,-100.00,SE,134,8.0,19.0,34,0.00,,,0.00,633.000000,,2013-09-12 22:43:00,
2013-09-12 16:54:00,72.0,42.0,-100.00,SE,134,8.0,19.0,34,0.00,,,0.00,633.000000,,2013-09-12 22:54:00,
2013-09-12 17:04:00,72.0,42.0,-100.00,SE,134,8.0,19.0,34,0.00,,,0.00,633.000000,,2013-09-12 23:04:00,
2013-09-12 17:43:00,69.0,40.0,-100.00,SSE,149,5.0,15.0,35,0.00,,,0.00,340.000000,,2013-09-12 23:43:00,
2013-09-12 17:52:00,69.0,40.0,-100.00,SSE,149,5.0,15.0,35,0.00,,,0.00,340.000000,,2013-09-12 23:52:00,
2013-09-12 18:01:00,69.0,40.0,-100.00,SSE,149,5.0,15.0,35,0.00,,,0.00,340.000000,,2013-09-13 00:01:00,
2013-09-12 18:42:00,67.0,40.0,-100.00,SE,136,6.0,10.0,37,0.00,,,0.00,138.000000,,2013-09-13 00:42:00,
2013-09-12 18:52:00,67.0,40.0,-100.00,SE,136,6.0,10.0,37,0.00,,,0.00,138.000000,,2013-09-13 00:52:00,
2013-09-12 19:01:00,67.0,40.0,-100.00,SE,136,6.0,10.0,37,0.00,,,0.00,138.000000,,2013-09-13 01:01:00,
2013-09-12 19:42:00,65.0,40.0,-100.00,East,93,6.0,7.0,40,0.00,,,0.00,57.000000,,2013-09-13 01:42:00,
2013-09-12 19:52:00,65.0,40.0,-100.00,East,93,6.0,7.0,40,0.00,,,0.00,57.000000,,2013-09-13 01:52:00,
2013-09-12 20:02:00,65.0,40.0,-100.00,East,93,6.0,7.0,40,0.00,,,0.00,57.000000,,2013-09-13 02:02:00,
2013-09-12 20:43:00,63.0,40.0,-100.00,SE,129,8.0,12.0,43,0.00,,,0.00,18.000000,,2013-09-13 02:43:00,
2013-09-12 20:53:00,63.0,40.0,-100.00,SE,129,8.0,12.0,43,0.00,,,0.00,18.000000,,2013-09-13 02:53:00,
2013-09-12 21:02:00,63.0,40.0,-100.00,SE,129,8.0,12.0,43,0.00,,,0.00,18.000000,,2013-09-13 03:02:00,
2013-09-12 21:45:00,61.0,42.0,-100.00,SE,125,12.0,18.0,49,0.00,,,0.00,0.000000,,2013-09-13 03:45:00,
2013-09-12 21:55:00,61.0,42.0,-100.00,SE,125,12.0,18.0,49,0.00,,,0.00,0.000000,,2013-09-13 03:55:00,
2013-09-12 22:04:00,61.0,42.0,-100.00,SE,125,12.0,18.0,49,0.00,,,0.00,0.000000,,2013-09-13 04:04:00,
2013-09-12 22:44:00,59.0,41.0,-100.00,SE,130,15.0,21.0,52,0.00,,,0.00,0.000000,,2013-09-13 04:44:00,
2013-09-12 22:54:00,59.0,41.0,-100.00,SE,130,15.0,21.0,52,0.00,,,0.00,0.000000,,2013-09-13 04:54:00,
2013-09-12 23:03:00,59.0,41.0,-100.00,SE,130,15.0,21.0,52,0.00,,,0.00,0.000000,,2013-09-13 05:03:00,
2013-09-12 23:43:00,58.0,44.0,-100.00,SE,128,13.0,20.0,60,0.00,,,-99.99,0.000000,,2013-09-13 05:43:00,
2013-09-12 23:53:00,58.0,44.0,-100.00,SE,128,13.0,20.0,60,0.00,,,-99.99,0.000000,,2013-09-13 05:53:00,